#timestamp,LO_Frequency,Hit 
1497639615.4,286047006.7,N
1497639635.2,286047006.8,N
1497639655.1,286047006.6,N
1497639656.0,286047006.6,N
1497639675.8,286047007.3,N
1497639695.6,286047010.8,N
1497639715.5,286047008.1,N
1497639735.3,286047006.9,N
1497639755.1,286047005.7,N
1497639775.8,286047004.4,N
1497639795.7,286047002.3,N
1497639815.5,286047000.2,N
1497639835.3,286047002.6,N
1497639855.2,286047003.6,N
1497639875.9,286047003.3,N
1497639895.7,286047002.9,N
1497639915.6,286047004.7,N
1497639935.4,286047006.4,N
1497639955.2,286047006.6,N
1497639975.1,286047006.6,N
1497639976.0,286047006.6,N
1497639995.8,286047006.9,N
1497640015.6,286047007.4,N
1497640035.5,286047008.0,N
1497640055.3,286047008.5,N
1497640075.1,286047008.5,N
1497640095.8,286047006.3,N
1497640115.7,286047009.0,N
1497640135.5,286047010.2,N
1497640155.3,286047012.2,N
1497640175.2,286047011.1,N
1497640195.9,286047010.1,N
1497640215.7,286047009.6,N
1497640235.6,286047010.4,N
1497640255.4,286047009.3,N
1497640275.2,286047010.2,N
1497640295.0,286047007.8,N
1497640296.0,286047007.8,N
1497640315.8,286047011.5,N
1497640335.6,286047014.3,N
1497640355.4,286047015.2,N
1497640375.3,286047014.6,N
1497640395.1,286047014.7,N
1497640415.8,286047016.7,Y
1497640435.7,286047008.4,N
1497640455.5,286047007.4,N
1497640475.3,286047005.8,N
1497640495.2,286047005.8,N
1497640515.9,286047001.6,N
1497640535.7,286047006.0,N
1497640555.6,286047006.0,N
1497640575.4,286047003.0,N
1497640595.2,286047004.3,N
1497640615.1,286047003.0,N
1497640616.0,286047003.0,N
1497640635.8,286047003.0,N
1497640655.6,286047005.5,N
1497640675.4,286047004.7,N
1497640695.3,286047009.0,N
1497640715.1,286047007.7,N
1497640735.8,286047006.8,N
1497640755.7,286047009.0,N
1497640775.5,286047007.7,N
1497640795.3,286047009.5,N
1497640815.2,286047010.1,N
1497640835.9,286047008.0,N
1497640855.7,286047008.2,N
1497640875.6,286047012.3,N
1497640895.4,286047011.9,N
1497640915.2,286047013.9,N
1497640935.1,286047012.5,N
1497640936.0,286047012.5,N
1497640955.8,286047015.0,Y
1497640975.6,286047003.1,N
1497640995.5,286047001.6,N
1497641015.3,286047001.9,N
1497641035.1,286047003.6,N
1497641055.8,286047001.5,N
1497641075.7,286047004.2,N
1497641095.5,286047004.3,N
1497641115.3,286047000.0,N
1497641135.2,286047002.6,N
1497641155.9,286047002.2,N
1497641175.7,286047005.0,N
1497641195.6,286047006.9,N
1497641215.4,286047006.4,N
1497641235.2,286047006.5,N
1497641255.1,286047008.2,N
1497641256.0,286047008.2,N
1497641275.8,286047008.1,N
1497641295.6,286047006.6,N
1497641315.5,286047007.4,N
1497641335.3,286047006.4,N
1497641355.1,286047006.9,N
1497641375.8,286047005.0,N
1497641395.7,286047006.8,N
1497641415.5,286047008.4,N
1497641435.3,286047010.5,N
1497641455.2,286047010.1,N
1497641475.9,286047008.2,N
1497641495.7,286047008.9,N
1497641515.6,286047004.9,N
1497641535.4,286047004.5,N
1497641555.2,286047006.7,N
1497641575.1,286047006.5,N
1497641576.0,286047006.5,N
1497641595.8,286047008.7,N
1497641615.6,286047008.8,N
1497641635.5,286047008.7,N
1497641655.3,286047007.9,N
1497641675.1,286047012.3,N
1497641695.8,286047011.4,N
1497641715.7,286047012.4,N
1497641735.5,286047012.4,N
1497641755.3,286047011.1,N
1497641775.2,286047010.9,N
1497641795.9,286047015.9,Y
1497641815.7,286047007.5,N
1497641835.6,286047003.4,N
1497641855.4,286047004.0,N
1497641875.2,286047003.9,N
1497641895.1,286047003.8,N
1497641896.0,286047003.8,N
1497641915.8,286047002.0,N
1497641935.6,286047002.4,N
1497641955.5,286047002.1,N
1497641975.3,286047003.7,N
1497641995.1,286047003.6,N
1497642015.8,286047005.9,N
1497642035.7,286047004.7,N
1497642055.5,286047005.8,N
1497642075.3,286047005.9,N
1497642095.2,286047009.0,N
1497642115.9,286047005.4,N
1497642135.7,286047006.3,N
1497642155.6,286047006.2,N
1497642175.4,286047007.3,N
1497642195.2,286047013.9,Y
1497642215.1,286047002.0,N
1497642216.0,286047002.0,N
1497642235.8,286047000.9,N
1497642255.6,286047000.2,N
1497642275.5,286047001.6,N
1497642295.3,286047001.3,N
1497642315.1,286047004.2,N
1497642335.9,286047003.5,N
1497642355.7,286047001.9,N
1497642375.5,286047001.4,N
1497642395.3,286047004.1,N
1497642415.2,286047003.8,N
1497642435.0,286047004.3,N
1497642435.9,286047004.3,N
1497642455.7,286047005.6,N
1497642475.6,286047005.4,N
1497642495.4,286047008.4,N
1497642515.2,286047008.1,N
1497642535.1,286047003.9,N
1497642536.0,286047003.9,N
1497642555.8,286047001.6,N
1497642575.6,286047005.4,N
1497642595.5,286047005.8,N
1497642615.3,286047007.4,N
1497642635.1,286047004.5,N
1497642655.9,286047007.5,N
1497642675.7,286047005.2,N
1497642695.5,286047005.7,N
1497642715.3,286047004.2,N
1497642735.2,286047003.1,N
1497642755.0,286047001.3,N
1497642755.9,286047001.3,N
1497642775.7,286047004.1,N
1497642795.6,286047003.9,N
1497642815.4,286047004.2,N
1497642835.2,286047005.6,N
1497642855.1,286047005.7,N
1497642856.0,286047005.7,N
1497642875.8,286047005.7,N
1497642895.6,286047004.8,N
1497642915.5,286047006.8,N
1497642935.3,286047004.5,N
1497642955.1,286047008.9,N
1497642975.9,286047012.4,N
1497642995.7,286047010.5,N
1497643015.5,286047010.6,N
1497643035.3,286047009.6,N
1497643055.2,286047011.1,N
1497643075.0,286047011.4,N
1497643075.9,286047011.4,N
1497643095.7,286047009.8,N
1497643115.6,286047010.7,N
1497643135.4,286047010.6,N
1497643155.2,286047013.3,N
1497643175.1,286047016.5,Y
1497643176.0,286047016.5,Y
1497643195.8,286046998.7,N
